User: anonymous   Login
Location: Mentone
(34.5413°N, 85.5351°W)
Time: 10:15:18
(UTC-05:00)
Language:

S-56A Canister/Altair - Orbit

View from above orbital plane
View from above orbital plane
View from above satellite
View from above satellite

Ground track
Ground track

The orbit data is extracted from the following two-line orbital elements,

1    82U 61004B   17086.46807438 +.00000108 +00000-0 +12899-3 0  9994
2    82 038.8523 239.4947 1168429 159.3077 205.9228 12.25823867663234
Epoch (UTC): 27 March 2017 11:14:01
Eccentricity: 0.1168429
inclination: 38.8523°
perigee height: 639 km
apogee height: 2495 km
right ascension of ascending node: 239.4947°
argument of perigee: 159.3077°
revolutions per day: 12.25823867
mean anomaly at epoch: 205.9228°
orbit number at epoch: 66323

The dashed part of the orbit path shows where the satellite is in the earth's shadow,  

DLR